• In Hungary
  • List of Countries
  • For 7 days
  • Water Temperature
  • Satellite Maps
  • Weather Map
  • News
  • Weather Widgets
  • user-avatar
    Login

    Hourly Weather Pittsburgh

    Today, 19 February, Monday

    Time Temperature Precipitation Wind Pressure Humidity
    00:00 0°C° 0 mm 3 mps 746 mmHg 86%
    01:00 +1°C° 0 mm 3 mps 745 mmHg 85%
    02:00 +1°C° 0 mm 3 mps 745 mmHg 86%
    03:00 +1°C° 0 mm 3 mps 745 mmHg 87%
    04:00 +2°C° 0 mm 2 mps 744 mmHg 88%
    05:00 +3°C° 0 mm 2 mps 744 mmHg 89%
    06:00 +3°C° 0 mm 2 mps 745 mmHg 90%
    07:00 +4°C° 0 mm 2 mps 745 mmHg 90%
    08:00 +5°C° 0.1 mm 2 mps 745 mmHg 91%
    09:00 +7°C° 0.1 mm 3 mps 745 mmHg 92%
    10:00 +8°C° 0.1 mm 3 mps 745 mmHg 93%
    11:00 +9°C° 0.4 mm 3 mps 744 mmHg 93%
    12:00 +10°C° 0.4 mm 4 mps 744 mmHg 94%
    13:00 +11°C° 0.4 mm 4 mps 744 mmHg 94%
    14:00 +12°C° 0.7 mm 4 mps 744 mmHg 94%
    15:00 +12°C° 0.7 mm 3 mps 743 mmHg 94%
    16:00 +12°C° 0.7 mm 3 mps 743 mmHg 95%
    17:00 +12°C° 0.1 mm 3 mps 743 mmHg 95%
    18:00 +13°C° 0.1 mm 2 mps 744 mmHg 95%
    19:00 +13°C° 0.1 mm 2 mps 744 mmHg 94%
    20:00 +12°C° 0.1 mm 3 mps 744 mmHg 94%
    21:00 +13°C° 0.1 mm 3 mps 744 mmHg 94%
    22:00 +13°C° 0.1 mm 3 mps 744 mmHg 94%
    23:00 +13°C° 0.1 mm 3 mps 744 mmHg 94%

    Tomorrow, 20 February, Tuesday

    Time Temperature Precipitation Wind Pressure Humidity
    00:00 +13°C° 0.1 mm 3 mps 744 mmHg 94%
    01:00 +13°C° 0.1 mm 3 mps 744 mmHg 94%
    02:00 +13°C° 0 mm 3 mps 744 mmHg 94%
    03:00 +13°C° 0 mm 3 mps 744 mmHg 93%
    04:00 +13°C° 0 mm 3 mps 744 mmHg 93%
    05:00 +13°C° 0 mm 3 mps 744 mmHg 93%
    06:00 +13°C° 0 mm 3 mps 744 mmHg 92%
    07:00 +12°C° 0 mm 3 mps 744 mmHg 92%
    08:00 +14°C° 0 mm 4 mps 745 mmHg 88%
    09:00 +15°C° 0 mm 4 mps 745 mmHg 85%
    10:00 +17°C° 0 mm 5 mps 745 mmHg 81%
    11:00 +19°C° 0 mm 5 mps 745 mmHg 80%
    12:00 +20°C° 0 mm 5 mps 744 mmHg 78%
    13:00 +20°C° 0 mm 5 mps 744 mmHg 77%
    14:00 +21°C° 0 mm 4 mps 744 mmHg 78%
    15:00 +21°C° 0 mm 3 mps 744 mmHg 78%
    16:00 +21°C° 0 mm 3 mps 744 mmHg 79%
    17:00 +20°C° 0 mm 3 mps 744 mmHg 82%
    18:00 +19°C° 0 mm 2 mps 744 mmHg 85%
    19:00 +18°C° 0 mm 2 mps 744 mmHg 88%
    20:00 +18°C° 0 mm 3 mps 744 mmHg 88%
    21:00 +17°C° 0 mm 3 mps 744 mmHg 88%
    22:00 +17°C° 0 mm 3 mps 744 mmHg 88%
    23:00 +17°C° 0 mm 3 mps 744 mmHg 88%

    Day after tomorrow, 21 February, Wednesday

    Time Temperature Precipitation Wind Pressure Humidity
    00:00 +16°C° 0 mm 3 mps 744 mmHg 87%
    01:00 +15°C° 0 mm 4 mps 744 mmHg 87%
    02:00 +15°C° 0 mm 4 mps 744 mmHg 86%
    03:00 +15°C° 0 mm 4 mps 744 mmHg 85%
    04:00 +15°C° 0 mm 4 mps 744 mmHg 83%
    05:00 +15°C° 0 mm 4 mps 744 mmHg 84%
    06:00 +14°C° 0 mm 3 mps 744 mmHg 84%
    07:00 +14°C° 0 mm 3 mps 744 mmHg 85%
    08:00 +15°C° 0.2 mm 4 mps 744 mmHg 83%
    09:00 +17°C° 0.2 mm 4 mps 744 mmHg 82%
    10:00 +19°C° 0.2 mm 5 mps 744 mmHg 80%
    11:00 +19°C° 0.2 mm 5 mps 744 mmHg 81%
    12:00 +19°C° 0.2 mm 5 mps 744 mmHg 82%
    13:00 +20°C° 0.2 mm 5 mps 744 mmHg 83%
    14:00 +19°C° 2.9 mm 5 mps 744 mmHg 85%
    15:00 +16°C° 2.9 mm 5 mps 745 mmHg 87%
    16:00 +15°C° 2.9 mm 5 mps 745 mmHg 89%
    17:00 +13°C° 1 mm 4 mps 746 mmHg 89%
    18:00 +11°C° 1 mm 4 mps 747 mmHg 88%
    19:00 +8°C° 1 mm 3 mps 748 mmHg 88%
    20:00 +7°C° 0.1 mm 3 mps 749 mmHg 88%
    21:00 +7°C° 0.1 mm 3 mps 750 mmHg 87%
    22:00 +5°C° 0.1 mm 3 mps 750 mmHg 87%
    23:00 +4°C° 0.1 mm 3 mps 750 mmHg 86%

    22 February, Thursday

    Time Temperature Precipitation Wind Pressure Humidity
    00:00 +4°C° 0.1 mm 3 mps 751 mmHg 86%
    01:00 +4°C° 0.1 mm 3 mps 751 mmHg 86%
    02:00 +4°C° 0.4 mm 3 mps 751 mmHg 86%
    03:00 +3°C° 0.4 mm 3 mps 751 mmHg 87%
    04:00 +3°C° 0.4 mm 3 mps 751 mmHg 88%
    05:00 +3°C° 0.4 mm 3 mps 751 mmHg 87%
    06:00 +3°C° 0.4 mm 3 mps 752 mmHg 87%
    07:00 +4°C° 0.4 mm 2 mps 752 mmHg 87%
    08:00 +3°C° 0.1 mm 3 mps 752 mmHg 85%
    09:00 +4°C° 0.1 mm 3 mps 753 mmHg 83%
    10:00 +4°C° 0.1 mm 3 mps 753 mmHg 81%
    11:00 +5°C° 0 mm 3 mps 753 mmHg 78%
    12:00 +7°C° 0 mm 3 mps 753 mmHg 74%
    13:00 +8°C° 0 mm 3 mps 753 mmHg 71%
    14:00 +9°C° 0 mm 3 mps 753 mmHg 69%
    15:00 +9°C° 0 mm 3 mps 752 mmHg 66%
    16:00 +10°C° 0 mm 3 mps 752 mmHg 64%
    17:00 +9°C° 0 mm 3 mps 752 mmHg 69%
    18:00 +7°C° 0 mm 3 mps 753 mmHg 74%
    19:00 +5°C° 0 mm 3 mps 753 mmHg 79%
    20:00 +5°C° 0 mm 3 mps 753 mmHg 80%
    21:00 +4°C° 0 mm 3 mps 753 mmHg 81%
    22:00 +4°C° 0 mm 3 mps 753 mmHg 82%
    23:00 +4°C° 0 mm 3 mps 752 mmHg 82%

    23 February, Friday

    Time Temperature Precipitation Wind Pressure Humidity
    00:00 +4°C° 0 mm 3 mps 752 mmHg 82%
    01:00 +4°C° 0 mm 3 mps 751 mmHg 83%
    02:00 +4°C° 0 mm 3 mps 751 mmHg 84%
    03:00 +4°C° 0 mm 3 mps 751 mmHg 86%
    04:00 +4°C° 0 mm 3 mps 750 mmHg 87%
    05:00 +4°C° 0 mm 3 mps 750 mmHg 88%
    06:00 +5°C° 0 mm 2 mps 749 mmHg 90%
    07:00 +5°C° 0 mm 2 mps 749 mmHg 91%
    08:00 +7°C° 0 mm 3 mps 749 mmHg 88%
    09:00 +8°C° 0 mm 3 mps 748 mmHg 85%
    10:00 +10°C° 0 mm 3 mps 748 mmHg 81%
    11:00 +10°C° 0.2 mm 3 mps 747 mmHg 83%
    12:00 +10°C° 0.2 mm 3 mps 746 mmHg 84%
    13:00 +10°C° 0.2 mm 3 mps 745 mmHg 85%
    14:00 +10°C° 2.8 mm 3 mps 745 mmHg 88%
    15:00 +10°C° 2.8 mm 3 mps 744 mmHg 91%
    16:00 +10°C° 2.8 mm 3 mps 743 mmHg 94%
    17:00 +11°C° 2.5 mm 3 mps 743 mmHg 94%
    18:00 +11°C° 2.5 mm 3 mps 742 mmHg 94%
    19:00 +12°C° 2.5 mm 3 mps 742 mmHg 95%
    20:00 +13°C° 0.8 mm 3 mps 742 mmHg 95%
    21:00 +13°C° 0.8 mm 3 mps 742 mmHg 95%
    22:00 +14°C° 0.8 mm 3 mps 742 mmHg 95%
    23:00 +14°C° 0.3 mm 3 mps 741 mmHg 96%

    24 February, Saturday

    Time Temperature Precipitation Wind Pressure Humidity
    00:00 +13°C° 0.3 mm 3 mps 741 mmHg 96%
    01:00 +13°C° 0.3 mm 3 mps 741 mmHg 97%
    02:00 +14°C° 0.2 mm 2 mps 740 mmHg 97%
    03:00 +14°C° 0.2 mm 2 mps 740 mmHg 97%
    04:00 +14°C° 0.2 mm 2 mps 739 mmHg 97%
    05:00 +14°C° 0.3 mm 2 mps 739 mmHg 97%
    06:00 +14°C° 0.3 mm 2 mps 739 mmHg 97%
    07:00 +14°C° 0.3 mm 2 mps 738 mmHg 97%
    08:00 +14°C° 2.4 mm 2 mps 738 mmHg 97%
    09:00 +15°C° 2.4 mm 2 mps 738 mmHg 97%
    10:00 +15°C° 2.4 mm 2 mps 737 mmHg 97%
    11:00 +15°C° 3.4 mm 2 mps 736 mmHg 96%
    12:00 +15°C° 3.4 mm 2 mps 736 mmHg 95%
    13:00 +15°C° 3.4 mm 2 mps 735 mmHg 94%
    14:00 +15°C° 0.4 mm 2 mps 735 mmHg 94%
    15:00 +15°C° 0.4 mm 2 mps 735 mmHg 94%
    16:00 +16°C° 0.4 mm 2 mps 735 mmHg 93%
    17:00 +15°C° 0 mm 2 mps 736 mmHg 94%
    18:00 +15°C° 0 mm 1 mps 736 mmHg 96%
    19:00 +14°C° 0 mm 1 mps 736 mmHg 97%
    20:00 +14°C° 0.3 mm 1 mps 736 mmHg 97%
    21:00 +14°C° 0.3 mm 1 mps 736 mmHg 97%
    22:00 +13°C° 0.3 mm 1 mps 736 mmHg 97%
    23:00 +13°C° 0.8 mm 1 mps 735 mmHg 97%
    Show more